Regional Weather Roundup
Issued by NWS Huntsville, AL

Home | Current Version | Previous Version | Text Only | Print | Product List | Glossary On
Versions: 1 2 3 4 5 6 7 8 9 10 11 12 13 14 15 16 17 18 19 20 21 22 23 24 25 26 27 28 29 30 31 32 33 34 35 36 37 38 39 40 41 42 43 44 45 46 47 48 49 50
000
ASUS44 KHUN 050610
RWRHUN

WEATHER ROUNDUP FOR THE TENNESSEE VALLEY
NATIONAL WEATHER SERVICE HUNTSVILLE AL
100 AM CDT TUE MAY 05 2015

ALZ001>004-050700-
NORTHWEST ALABAMA

CITY           SKY/WX    TMP DP  RH WIND       PRES   REMARKS
COURTLAND HCN    N/A     59 N/A N/A CALM        N/A
RUSSELLVILLE     N/A     57 N/A N/A MISG        N/A
SHOALS AIRPORT CLEAR     60  54  80 SE3       30.24S
6HR MIN TEMP:  60; 6HR MAX TEMP:  78;

SHOALS TVA RES   N/A     59 N/A N/A MISG        N/A
$$

ALZ005>007-016-050700-
NORTH CENTRAL ALABAMA

CITY           SKY/WX    TMP DP  RH WIND       PRES   REMARKS
CULLMAN AG STN   N/A     55 N/A N/A CALM        N/A
DECATUR AP     CLEAR     58  55  90 CALM      30.25R
6HR MIN TEMP:  58; 6HR MAX TEMP:  72;

HUNTSVILLE AP  CLEAR     64  54  69 E3        30.24S
6HR MIN TEMP:  64; 6HR MAX TEMP:  81;

HUN NWS/UAH      N/A     65  54  68 NE1         N/A
MERIDIANVILLE  CLEAR     55  52  88 CALM      30.26S
VINEMONT AP    FAIR      56  54  92 CALM      30.27S
$$

ALZ008>010-050700-
NORTHEAST ALABAMA

CITY           SKY/WX    TMP DP  RH WIND       PRES   REMARKS
ALBERTVILLE    CLEAR     63  57  82 E3        30.26S
FORT PAYNE     CLEAR     54  50  87 CALM      30.27S
SCOTTSBORO HCN   N/A     55 N/A N/A MISG        N/A
VALLEY HEAD      N/A     54 N/A N/A MISG        N/A
$$

TNZ076-096-097-050700-
SOUTHEASTERN MIDDLE TENNESSEE

CITY           SKY/WX    TMP DP  RH WIND       PRES   REMARKS
TULLAHOMA      CLEAR     55  52  88 CALM      30.27S
WINCHESTER     CLEAR     55  52  88 CALM      30.27S
$$

...SURROUNDING SITES...

CITY           SKY/WX    TMP DP  RH WIND       PRES   REMARKS
ATLANTA        CLEAR     65  53  65 SE5       30.29F
ANNISTON       CLEAR     60  55  83 E3        30.26S
BIRMINGHAM     CLEAR     63  56  78 E3        30.26S
CHATTANOOGA    CLEAR     59  54  83 CALM      30.27S
CORINTH        FAIR      59  55  88 CALM      30.21R
DALTON         CLEAR     55  55 100 CALM      30.28S
GADSDEN        CLEAR    N/A N/A N/A CALM      30.24S
GOLDEN TRNGL     N/A     64  54  68 SE6       30.20S
HALEYVILLE       N/A     55  55 100 MISG      30.27R
JACKSON TN     CLEAR     59  53  80 S3        30.21R
LEWISBURG      FAIR      54  51  89 CALM      30.24
MEMPHIS        PTCLDY    69  56  62 S6        30.19R
NASHVILLE      CLEAR     62  54  74 S5        30.24R
OXFORD MS      LGT RAIN  63  54  72 SE6       30.21S
ROME           CLEAR     58  56  93 CALM      30.27S
SAVANNAH       CLEAR     55  32  41 CALM      30.23R
TUPELO         CLEAR     63  54  72 CALM      30.21R
TUSCALOOSA     CLEAR     60  57  89 CALM      30.22S
$$

...GULF COAST WEATHER...

CITY           SKY/WX    TMP DP  RH WIND       PRES   REMARKS
GULFPORT       CLEAR     72  60  66 SE13      30.17F
PASCAGOULA     CLEAR     59  58  96 CALM      30.19F FOG
MOBILE         CLEAR     65  61  87 E6        30.20F
GULF SHORES    PTCLDY    62  60  96 CALM      30.19F
PENSACOLA      PTCLDY    60  60 100 CALM      30.18F
DESTIN         PTCLDY    66  63  90 CALM      30.20F
PANAMA CITY    PTCLDY    68  62  81 NE3       30.20F
APPALACHICOLA  CLEAR     76  61  59 E6        30.20F
$$



USA.gov is the U.S. government's official web portal to all federal, state and local government web resources and services.